Simultaneous Nadir Overpasses (SNOs) Predictions

Prediction of SNOs between GOES-16 and AQUA Satellite Orbit:

Table of predicted SNOs for the next 14.0 days since TLE Epoch: 12/5/2020
Index Date Time (GOES-16) GOES-16 Lat,Lon AQUA Lat,Lon Distance(km) Time Diff (sec)
1 12/05/2020 06:44:19 0.02, -75.21 0.38, -76.84 185.47 80
2 12/07/2020 06:29:29 0.01, -75.22 -0.28, -73.89 151.39 80
3 12/07/2020 18:50:52 -0.01, -75.23 -0.84, -79.08 438.05 80
4 12/09/2020 06:17:17 0.01, -75.23 -0.88, -70.93 488.92 80
5 12/09/2020 18:38:41 -0.01, -75.24 -0.18, -76.13 100.32 80
6 12/11/2020 18:29:09 -0.01, -75.26 0.43, -73.17 237.92 80
7 12/12/2020 06:50:24 0.01, -75.26 0.68, -78.32 348.21 80
8 12/14/2020 06:38:13 0.01, -75.28 0.00, -75.37 10.07 80
9 12/16/2020 06:23:21 0.00, -75.30 -0.62, -72.41 329.15 80
10 12/16/2020 18:44:45 -0.00, -75.31 -0.49, -77.60 260.31 80
11 12/18/2020 18:35:13 0.01, -75.34 0.14, -74.64 79.58 80
